Location: Boiro
(42.6475°N, 8.8834°W)
Time: 19:51:20
(UTC+01:00)

Vanguard 3 - Pass Details

Date: 03 December 2021
Orbit: 508 x 3260 km, 33.3° (Epoch: 16 January)

Event Time Altitude Azimuth Distance (km) Brightness Sun altitude
Rises 04:11:20 0° 218° (SW) 6,795 - -49.9°
Reaches altitude 10° 04:16:04 10° 212° (SSW) 5,987 - -49.1°
Exits shadow 04:27:18 34° 182° (S) 4,470 10.6 -47.1°
Maximum altitude 04:33:22 41° 151° (SSE) 4,119 10.6 -46.0°
Drops below altitude 10° 04:48:48 10° 90° (E) 5,410 11.9 -43.2°
Sets 04:52:46 0° 83° (E) 6,115 12.4 -42.5°
